START_TIME,STEP,MOV.,AL01,t_acc.,AL02,t_acc.,E37,t_acc.,H21,t_acc.
1979-08-01 09:00:33.200 ,0,0,0.,24.0,0.,24.0,0.,24.0,0.,24.0
1979-08-01 09:00:57.200 ,0,1,1.,24.0,0.,24.0,1.,24.0,0.,24.0
1979-08-01 09:01:21.200 ,0,0,1.,24.0,0.,24.0,0.,24.0,0.,24.0
1979-08-01 09:01:45.200 ,0,0,0.,24.0,0.,24.0,0.,24.0,0.,24.0
1979-08-01 09:02:09.200 ,0,0,0.,24.0,0.,24.0,0.,24.0,0.,24.0
1979-08-01 09:02:33.200 ,2,1,0.,24.0,0.,24.0,0.,24.0,0.,24.0
1979-08-01 09:02:57.200 ,2,0,0.,24.0,0.,24.0,0.,24.0,0.,24.0
1979-08-01 09:03:21.200 ,3,1,0.,24.0,0.,24.0,0.,24.0,0.,24.0
1979-08-01 09:03:45.200 ,3,0,0.,24.0,0.,24.0,2.,24.0,0.,24.0
1979-08-01 09:04:09.200 ,4,1,0.,24.0,0.,24.0,1.,24.0,0.,24.0
1979-08-01 09:04:33.200 ,4,0,0.,24.0,0.,24.0,2.,24.0,0.,24.0
1979-08-01 09:04:57.200 ,5,1,0.,24.0,0.,24.0,1.,24.0,0.,24.0
1979-08-01 09:05:21.200 ,0,0,0.,24.0,0.,24.0,0.,24.0,0.,24.0
1979-08-01 09:05:45.200 ,6,1,0.,24.0,0.,24.0,3.,24.0,0.,24.0
1979-08-01 09:06:09.200 ,6,0,0.,24.0,0.,24.0,1.,24.0,0.,24.0
1979-08-01 09:06:33.200 ,7,0,,0,,0,,0,,0
1979-08-01 09:06:57.200 ,7,0,25.,24.0,0.,24.0,1.,24.0,0.,24.0
1979-08-01 09:07:21.200 ,5,1,27.,24.0,0.,24.0,3.,24.0,0.,24.0
1979-08-01 09:07:45.200 ,1,1,0.,24.0,0.,24.0,0.,24.0,0.,24.0
1979-08-01 09:08:09.200 ,2,1,0.,24.0,0.,24.0,1.,24.0,0.,24.0
1979-08-01 09:08:33.200 ,6,1,0.,24.0,0.,24.0,0.,24.0,0.,24.0
1979-08-01 09:08:57.200 ,5,1,18.,24.0,0.,24.0,2.,24.0,0.,24.0
1979-08-01 09:09:21.200 ,1,1,1.,24.0,0.,24.0,1.,24.0,0.,24.0
1979-08-01 09:09:45.200 ,2,1,0.,24.0,0.,24.0,0.,24.0,0.,24.0
1979-08-01 09:10:09.200 ,6,1,0.,24.0,0.,24.0,0.,24.0,0.,24.0
1979-08-01 09:10:33.200 ,5,1,8.,24.0,0.,24.0,1.,24.0,0.,24.0
1979-08-01 09:10:57.200 ,1,1,0.,24.0,0.,24.0,2.,24.0,0.,24.0
1979-08-01 09:11:21.200 ,2,1,0.,24.0,0.,24.0,0.,24.0,0.,24.0
1979-08-01 09:11:45.200 ,6,1,0.,24.0,0.,24.0,0.,24.0,0.,24.0
1979-08-01 09:12:09.200 ,5,1,14.,24.0,0.,24.0,1.,24.0,0.,24.0
1979-08-01 09:12:33.200 ,1,1,0.,24.0,0.,24.0,0.,24.0,0.,24.0
1979-08-01 09:12:57.200 ,2,1,0.,24.0,0.,24.0,1.,24.0,0.,24.0
1979-08-01 09:13:21.200 ,6,1,1.,24.0,0.,24.0,1.,24.0,0.,24.0
1979-08-01 09:13:45.200 ,5,1,17.,24.0,0.,24.0,0.,24.0,0.,24.0
1979-08-01 09:14:09.200 ,1,1,0.,24.0,0.,24.0,0.,24.0,0.,24.0
1979-08-01 09:14:33.200 ,2,1,0.,24.0,0.,24.0,3.,24.0,0.,24.0
1979-08-01 09:14:57.200 ,6,1,0.,24.0,0.,24.0,0.,24.0,0.,24.0
1979-08-01 09:15:21.200 ,5,1,16.,24.0,0.,24.0,1.,24.0,0.,24.0
1979-08-01 09:15:45.200 ,1,1,0.,24.0,0.,24.0,1.,24.0,0.,24.0
1979-08-01 09:16:09.200 ,2,1,0.,24.0,0.,24.0,0.,24.0,0.,24.0
1979-08-01 09:16:33.200 ,6,1,0.,24.0,0.,24.0,1.,24.0,0.,24.0
1979-08-01 09:16:57.200 ,5,1,20.,24.0,0.,24.0,0.,24.0,0.,24.0
1979-08-01 09:17:21.200 ,1,1,0.,24.0,0.,24.0,1.,24.0,0.,24.0
1979-08-01 09:17:45.200 ,0,0,0.,24.0,0.,24.0,2.,24.0,0.,24.0
1979-08-01 09:18:09.200 ,0,0,1.,24.0,0.,24.0,1.,24.0,0.,24.0
1979-08-01 09:18:33.200 ,5,1,16.,24.0,0.,24.0,0.,24.0,0.,24.0
1979-08-01 09:18:57.200 ,5,0,0.,24.0,0.,24.0,1.,24.0,0.,24.0
1979-08-01 09:19:21.200 ,4,1,0.,24.0,0.,24.0,0.,24.0,0.,24.0
1979-08-01 09:19:45.200 ,4,0,0.,24.0,0.,24.0,0.,24.0,0.,24.0
1979-08-01 09:20:09.200 ,3,1,0.,24.0,0.,24.0,1.,24.0,0.,24.0
1979-08-01 09:20:33.200 ,3,0,0.,24.0,0.,24.0,1.,24.0,0.,24.0
1979-08-01 09:20:57.200 ,2,1,0.,24.0,0.,24.0,2.,24.0,0.,24.0
1979-08-01 09:21:21.200 ,2,0,0.,24.0,0.,24.0,1.,24.0,0.,24.0
1979-08-01 09:21:45.200 ,1,1,0.,24.0,0.,24.0,1.,24.0,0.,24.0
1979-08-01 09:22:09.200 ,1,0,0.,24.0,0.,24.0,2.,24.0,0.,24.0
1979-08-01 09:22:33.200 ,0,1,0.,24.0,0.,24.0,1.,24.0,0.,24.0
1979-08-01 09:22:57.200 ,0,0,0.,24.0,0.,24.0,2.,24.0,0.,24.0
1979-08-01 09:23:21.200 ,0,1,0.,24.0,0.,24.0,0.,24.0,0.,24.0
1979-08-01 09:23:45.200 ,0,0,0.,24.0,0.,24.0,1.,24.0,0.,24.0
1979-08-01 09:24:09.200 ,1,1,0.,24.0,0.,24.0,1.,24.0,0.,24.0
1979-08-01 09:24:33.200 ,1,0,0.,24.0,0.,24.0,1.,24.0,0.,24.0
1979-08-01 09:24:57.200 ,2,1,0.,24.0,0.,24.0,1.,24.0,0.,24.0
1979-08-01 09:25:21.200 ,0,1,0.,24.0,0.,24.0,0.,24.0,0.,24.0
1979-08-01 09:25:45.200 ,3,1,0.,24.0,0.,24.0,1.,24.0,0.,24.0
1979-08-01 09:26:09.200 ,3,0,0.,24.0,0.,24.0,2.,24.0,0.,24.0
1979-08-01 09:26:33.200 ,4,1,0.,24.0,0.,24.0,1.,24.0,0.,24.0
1979-08-01 09:26:57.200 ,4,0,0.,24.0,0.,24.0,4.,24.0,0.,24.0
1979-08-01 09:27:21.200 ,5,1,0.,24.0,0.,24.0,1.,24.0,0.,24.0
1979-08-01 09:27:45.200 ,5,0,1.,24.0,0.,24.0,0.,24.0,0.,24.0
1979-08-01 09:28:09.200 ,6,1,0.,24.0,0.,24.0,4.,24.0,0.,24.0
1979-08-01 09:28:33.200 ,6,0,0.,24.0,0.,24.0,0.,24.0,0.,24.0
1979-08-01 09:28:57.200 ,7,1,7.,24.0,0.,24.0,0.,24.0,0.,24.0
1979-08-01 09:29:21.200 ,7,0,32.,24.0,0.,24.0,0.,24.0,0.,24.0
1979-08-01 09:29:45.200 ,7,1,33.,24.0,0.,24.0,2.,24.0,0.,24.0
1979-08-01 09:30:09.200 ,7,0,39.,24.0,0.,24.0,1.,24.0,0.,24.0
1979-08-01 09:30:33.200 ,6,1,22.,24.0,0.,24.0,1.,24.0,0.,24.0
1979-08-01 09:30:57.200 ,6,0,0.,24.0,0.,24.0,3.,24.0,0.,24.0
1979-08-01 09:31:21.200 ,5,1,0.,24.0,0.,24.0,0.,24.0,0.,24.0
1979-08-01 09:31:45.200 ,5,0,0.,24.0,0.,24.0,1.,24.0,0.,24.0
1979-08-01 09:32:09.200 ,4,1,0.,24.0,0.,24.0,2.,24.0,0.,24.0
1979-08-01 09:32:33.200 ,4,0,0.,24.0,0.,24.0,1.,24.0,0.,24.0
1979-08-01 09:32:57.200 ,3,1,0.,24.0,0.,24.0,1.,24.0,0.,24.0
1979-08-01 09:33:21.200 ,3,0,0.,24.0,0.,24.0,1.,24.0,0.,24.0
1979-08-01 09:33:45.200 ,2,1,0.,24.0,0.,24.0,0.,24.0,0.,24.0
1979-08-01 09:34:09.200 ,2,0,1.,24.0,0.,24.0,1.,24.0,0.,24.0
1979-08-01 09:34:33.200 ,1,1,0.,24.0,0.,24.0,1.,24.0,0.,24.0
1979-08-01 09:34:57.200 ,1,0,0.,24.0,1.,24.0,1.,24.0,0.,24.0
1979-08-01 09:35:21.200 ,0,1,1.,24.0,1.,24.0,2.,24.0,0.,24.0
1979-08-01 09:35:45.200 ,0,0,0.,24.0,0.,24.0,0.,24.0,0.,24.0
1979-08-01 09:36:09.200 ,0,1,0.,24.0,1.,24.0,1.,24.0,0.,24.0
1979-08-01 09:36:33.200 ,0,0,0.,24.0,0.,24.0,0.,24.0,0.,24.0
1979-08-01 09:36:57.200 ,1,1,0.,24.0,0.,24.0,0.,24.0,0.,24.0
1979-08-01 09:37:21.200 ,1,0,0.,24.0,0.,24.0,0.,24.0,0.,24.0
1979-08-01 09:37:45.200 ,2,1,1.,24.0,0.,24.0,0.,24.0,0.,24.0
1979-08-01 09:38:09.200 ,2,0,0.,24.0,0.,24.0,0.,24.0,0.,24.0
1979-08-01 09:38:33.200 ,3,1,0.,24.0,0.,24.0,0.,24.0,0.,24.0
1979-08-01 09:38:57.200 ,3,0,0.,24.0,0.,24.0,0.,24.0,0.,24.0
1979-08-01 09:39:21.200 ,4,1,0.,24.0,0.,24.0,0.,24.0,0.,24.0
1979-08-01 09:39:45.200 ,4,0,0.,24.0,0.,24.0,1.,24.0,0.,24.0
1979-08-01 09:40:09.200 ,5,1,0.,24.0,0.,24.0,1.,24.0,0.,24.0
1979-08-01 09:40:33.200 ,5,0,1.,24.0,0.,24.0,1.,24.0,0.,24.0
1979-08-01 09:40:57.200 ,6,1,0.,24.0,0.,24.0,0.,24.0,0.,24.0
1979-08-01 09:41:21.200 ,6,0,0.,24.0,0.,24.0,1.,24.0,0.,24.0
1979-08-01 09:41:45.200 ,7,1,10.,24.0,0.,24.0,2.,24.0,0.,24.0
1979-08-01 09:42:09.200 ,7,0,32.,24.0,0.,24.0,0.,24.0,0.,24.0
1979-08-01 09:42:33.200 ,7,1,31.,24.0,0.,24.0,0.,24.0,0.,24.0
1979-08-01 09:42:57.200 ,7,0,19.,24.0,0.,24.0,0.,24.0,0.,24.0
1979-08-01 09:43:21.200 ,6,1,26.,24.0,0.,24.0,0.,24.0,0.,24.0
1979-08-01 09:43:45.200 ,6,0,0.,24.0,0.,24.0,2.,24.0,0.,24.0
1979-08-01 09:44:09.200 ,5,1,0.,24.0,0.,24.0,1.,24.0,0.,24.0
1979-08-01 09:44:33.200 ,5,0,0.,24.0,0.,24.0,3.,24.0,0.,24.0
1979-08-01 09:44:57.200 ,4,1,0.,24.0,0.,24.0,1.,24.0,0.,24.0
1979-08-01 09:45:21.200 ,4,0,0.,24.0,0.,24.0,0.,24.0,0.,24.0
1979-08-01 09:45:45.200 ,3,1,0.,24.0,0.,24.0,1.,24.0,0.,24.0
1979-08-01 09:46:09.200 ,3,0,0.,24.0,1.,24.0,0.,24.0,0.,24.0
1979-08-01 09:46:33.200 ,2,1,0.,24.0,0.,24.0,1.,24.0,0.,24.0
1979-08-01 09:46:57.200 ,2,0,0.,24.0,0.,24.0,0.,24.0,0.,24.0
1979-08-01 09:47:21.200 ,1,1,0.,24.0,0.,24.0,1.,24.0,0.,24.0
1979-08-01 09:47:45.200 ,1,0,0.,24.0,0.,24.0,1.,24.0,0.,24.0
1979-08-01 09:48:09.200 ,0,1,0.,24.0,0.,24.0,0.,24.0,0.,24.0
1979-08-01 09:48:33.200 ,0,0,0.,24.0,0.,24.0,1.,24.0,0.,24.0
1979-08-01 09:48:57.200 ,0,1,0.,24.0,0.,24.0,1.,24.0,0.,24.0
1979-08-01 09:49:21.200 ,0,0,0.,24.0,0.,24.0,0.,24.0,0.,24.0
1979-08-01 09:49:45.200 ,1,1,0.,24.0,0.,24.0,2.,24.0,0.,24.0
1979-08-01 09:50:09.200 ,1,0,0.,24.0,0.,24.0,0.,24.0,0.,24.0
1979-08-01 09:50:33.200 ,2,1,0.,24.0,0.,24.0,1.,24.0,0.,24.0
1979-08-01 09:50:57.200 ,2,0,0.,24.0,0.,24.0,0.,24.0,0.,24.0
1979-08-01 09:51:21.200 ,3,1,0.,24.0,0.,24.0,1.,24.0,0.,24.0
1979-08-01 09:51:45.200 ,3,0,0.,24.0,0.,24.0,1.,24.0,0.,24.0
1979-08-01 09:52:09.200 ,4,1,0.,24.0,0.,24.0,0.,24.0,0.,24.0
1979-08-01 09:52:33.200 ,4,0,0.,24.0,0.,24.0,1.,24.0,0.,24.0
1979-08-01 09:52:57.200 ,5,1,0.,24.0,0.,24.0,0.,24.0,0.,24.0
1979-08-01 09:53:21.200 ,5,0,0.,24.0,0.,24.0,2.,24.0,0.,24.0
1979-08-01 09:53:45.200 ,6,1,0.,24.0,0.,24.0,1.,24.0,0.,24.0
1979-08-01 09:54:09.200 ,6,0,1.,24.0,0.,24.0,0.,24.0,0.,24.0
1979-08-01 09:54:33.200 ,7,0,6.,24.0,0.,24.0,2.,24.0,0.,24.0
1979-08-01 09:54:57.200 ,7,0,36.,24.0,0.,24.0,2.,24.0,0.,24.0
1979-08-01 09:55:21.200 ,5,1,12.,24.0,0.,24.0,1.,24.0,0.,24.0
1979-08-01 09:55:45.200 ,1,1,0.,24.0,0.,24.0,1.,24.0,0.,24.0
1979-08-01 09:56:09.200 ,2,1,1.,24.0,0.,24.0,2.,24.0,0.,24.0
1979-08-01 09:56:33.200 ,6,1,0.,24.0,0.,24.0,1.,24.0,0.,24.0
1979-08-01 09:56:57.200 ,5,1,16.,24.0,0.,24.0,2.,24.0,0.,24.0
1979-08-01 09:57:21.200 ,1,1,0.,24.0,0.,24.0,0.,24.0,0.,24.0
1979-08-01 09:57:45.200 ,2,1,0.,24.0,0.,24.0,1.,24.0,0.,24.0
1979-08-01 09:58:09.200 ,6,1,0.,24.0,0.,24.0,1.,24.0,0.,24.0
1979-08-01 09:58:33.200 ,5,1,16.,24.0,0.,24.0,1.,24.0,0.,24.0
1979-08-01 09:58:57.200 ,1,1,0.,24.0,0.,24.0,0.,24.0,0.,24.0
1979-08-01 09:59:21.200 ,2,1,0.,24.0,0.,24.0,1.,24.0,0.,24.0
1979-08-01 09:59:45.200 ,6,1,,0,,0,,0,,0
1979-08-01 10:00:09.200 ,5,1,22.,24.0,0.,24.0,1.,24.0,0.,24.0
1979-08-01 10:00:33.200 ,1,1,0.,24.0,0.,24.0,0.,24.0,0.,24.0
1979-08-01 10:00:57.200 ,2,1,1.,24.0,0.,24.0,1.,24.0,0.,24.0
1979-08-01 10:01:21.200 ,6,1,0.,24.0,0.,24.0,1.,24.0,0.,24.0
1979-08-01 10:01:45.200 ,5,1,12.,24.0,0.,24.0,1.,24.0,0.,24.0
1979-08-01 10:02:09.200 ,1,1,0.,24.0,0.,24.0,1.,24.0,0.,24.0
1979-08-01 10:02:33.200 ,2,1,0.,24.0,0.,24.0,0.,24.0,0.,24.0
1979-08-01 10:02:57.200 ,6,1,0.,24.0,0.,24.0,0.,24.0,0.,24.0
1979-08-01 10:03:21.200 ,5,1,14.,24.0,0.,24.0,1.,24.0,0.,24.0
1979-08-01 10:03:45.200 ,1,1,0.,24.0,0.,24.0,1.,24.0,0.,24.0
1979-08-01 10:04:09.200 ,0,0,0.,24.0,0.,24.0,0.,24.0,0.,24.0
1979-08-01 10:04:33.200 ,6,1,,0,,0,,0,,0
1979-08-01 10:04:57.200 ,5,1,10.,24.0,0.,24.0,0.,24.0,0.,24.0
1979-08-01 10:05:21.200 ,1,1,1.,24.0,0.,24.0,2.,24.0,0.,24.0
1979-08-01 10:05:45.200 ,0,0,0.,24.0,0.,24.0,1.,24.0,0.,24.0
1979-08-01 10:06:09.200 ,0,0,0.,24.0,1.,24.0,3.,24.0,0.,24.0
1979-08-01 10:06:33.200 ,5,1,14.,24.0,0.,24.0,1.,24.0,0.,24.0
1979-08-01 10:06:57.200 ,5,0,0.,24.0,0.,24.0,1.,24.0,0.,24.0
1979-08-01 10:07:21.200 ,4,1,0.,24.0,0.,24.0,0.,24.0,0.,24.0
1979-08-01 10:07:45.200 ,4,0,0.,24.0,0.,24.0,1.,24.0,0.,24.0
1979-08-01 10:08:09.200 ,3,1,0.,24.0,0.,24.0,0.,24.0,0.,24.0
1979-08-01 10:08:33.200 ,3,0,0.,24.0,0.,24.0,0.,24.0,0.,24.0
1979-08-01 10:08:57.200 ,2,1,0.,24.0,0.,24.0,1.,24.0,0.,24.0
1979-08-01 10:09:21.200 ,2,0,0.,24.0,0.,24.0,0.,24.0,0.,24.0
1979-08-01 10:09:45.200 ,1,1,0.,24.0,0.,24.0,1.,24.0,0.,24.0
1979-08-01 10:10:09.200 ,1,0,0.,24.0,0.,24.0,2.,24.0,0.,24.0
1979-08-01 10:10:33.200 ,0,1,1.,24.0,0.,24.0,0.,24.0,0.,24.0
1979-08-01 10:10:57.200 ,0,0,0.,24.0,0.,24.0,0.,24.0,0.,24.0
1979-08-01 10:11:21.200 ,0,1,,0,,0,,0,,0
1979-08-01 10:11:45.200 ,0,0,0.,24.0,0.,24.0,0.,24.0,0.,24.0
1979-08-01 10:12:09.200 ,1,1,1.,24.0,0.,24.0,3.,24.0,0.,24.0
1979-08-01 10:12:33.200 ,1,0,0.,24.0,0.,24.0,0.,24.0,0.,24.0
1979-08-01 10:12:57.200 ,2,1,1.,24.0,0.,24.0,3.,24.0,0.,24.0
1979-08-01 10:13:21.200 ,2,0,0.,24.0,0.,24.0,0.,24.0,0.,24.0
1979-08-01 10:13:45.200 ,3,1,0.,24.0,0.,24.0,0.,24.0,0.,24.0
1979-08-01 10:14:09.200 ,3,0,0.,24.0,0.,24.0,1.,24.0,0.,24.0
1979-08-01 10:14:33.200 ,4,1,0.,24.0,0.,24.0,2.,24.0,0.,24.0
1979-08-01 10:14:57.200 ,4,0,0.,24.0,0.,24.0,0.,24.0,0.,24.0
1979-08-01 10:15:21.200 ,5,1,0.,24.0,0.,24.0,1.,24.0,0.,24.0
1979-08-01 10:15:45.200 ,5,0,0.,24.0,0.,24.0,4.,24.0,0.,24.0
1979-08-01 10:16:09.200 ,6,1,0.,24.0,1.,24.0,0.,24.0,0.,24.0
1979-08-01 10:16:33.200 ,6,0,0.,24.0,0.,24.0,1.,24.0,0.,24.0
1979-08-01 10:16:57.200 ,7,1,13.,24.0,0.,24.0,1.,24.0,0.,24.0
1979-08-01 10:17:21.200 ,0,0,34.,24.0,0.,24.0,0.,24.0,0.,24.0
1979-08-01 10:17:45.200 ,7,1,21.,24.0,0.,24.0,2.,24.0,0.,24.0
1979-08-01 10:18:09.200 ,7,0,39.,24.0,0.,24.0,0.,24.0,0.,24.0
1979-08-01 10:18:33.200 ,6,1,28.,24.0,0.,24.0,2.,24.0,0.,24.0
1979-08-01 10:18:57.200 ,6,0,0.,24.0,1.,24.0,0.,24.0,0.,24.0
1979-08-01 10:19:21.200 ,5,1,0.,24.0,0.,24.0,2.,24.0,0.,24.0
1979-08-01 10:19:45.200 ,5,0,0.,24.0,0.,24.0,2.,24.0,0.,24.0
1979-08-01 10:20:09.200 ,4,1,0.,24.0,0.,24.0,1.,24.0,0.,24.0
1979-08-01 10:20:33.200 ,4,0,0.,24.0,0.,24.0,0.,24.0,0.,24.0
1979-08-01 10:20:57.200 ,3,1,0.,24.0,0.,24.0,1.,24.0,0.,24.0
1979-08-01 10:21:21.200 ,3,0,0.,24.0,0.,24.0,0.,24.0,0.,24.0
1979-08-01 10:21:45.200 ,2,1,0.,24.0,0.,24.0,0.,24.0,0.,24.0
1979-08-01 10:22:09.200 ,2,0,1.,24.0,0.,24.0,0.,24.0,0.,24.0
1979-08-01 10:22:33.200 ,1,1,0.,24.0,0.,24.0,3.,24.0,0.,24.0
1979-08-01 10:22:57.200 ,1,0,0.,24.0,0.,24.0,1.,24.0,0.,24.0
1979-08-01 10:23:21.200 ,0,1,0.,24.0,0.,24.0,1.,24.0,0.,24.0
1979-08-01 10:23:45.200 ,0,0,0.,24.0,0.,24.0,0.,24.0,0.,24.0
1979-08-01 10:24:09.200 ,0,1,0.,24.0,0.,24.0,1.,24.0,0.,24.0
1979-08-01 10:24:33.200 ,0,0,0.,24.0,0.,24.0,0.,24.0,0.,24.0
1979-08-01 10:24:57.200 ,1,1,0.,24.0,0.,24.0,0.,24.0,0.,24.0
1979-08-01 10:25:21.200 ,1,0,0.,24.0,0.,24.0,1.,24.0,0.,24.0
1979-08-01 10:25:45.200 ,2,1,0.,24.0,0.,24.0,1.,24.0,0.,24.0
1979-08-01 10:26:09.200 ,2,0,1.,24.0,0.,24.0,0.,24.0,0.,24.0
1979-08-01 10:26:33.200 ,3,1,0.,24.0,0.,24.0,0.,24.0,0.,24.0
1979-08-01 10:26:57.200 ,3,0,0.,24.0,0.,24.0,2.,24.0,0.,24.0
1979-08-01 10:27:21.200 ,4,1,0.,24.0,0.,24.0,1.,24.0,0.,24.0
1979-08-01 10:27:45.200 ,4,0,0.,24.0,0.,24.0,0.,24.0,0.,24.0
1979-08-01 10:28:09.200 ,5,1,1.,24.0,0.,24.0,1.,24.0,0.,24.0
1979-08-01 10:28:33.200 ,5,0,0.,24.0,0.,24.0,0.,24.0,0.,24.0
1979-08-01 10:28:57.200 ,6,1,0.,24.0,0.,24.0,2.,24.0,0.,24.0
1979-08-01 10:29:21.200 ,6,0,0.,24.0,0.,24.0,0.,24.0,0.,24.0
1979-08-01 10:29:45.200 ,7,1,4.,24.0,0.,24.0,0.,24.0,0.,24.0
1979-08-01 10:30:09.200 ,7,0,27.,24.0,0.,24.0,3.,24.0,0.,24.0
1979-08-01 10:30:33.200 ,7,1,33.,24.0,0.,24.0,1.,24.0,0.,24.0
1979-08-01 10:30:57.200 ,7,0,31.,24.0,0.,24.0,1.,24.0,0.,24.0
1979-08-01 10:31:21.200 ,6,1,28.,24.0,0.,24.0,0.,24.0,0.,24.0
1979-08-01 10:31:45.200 ,6,0,0.,24.0,0.,24.0,1.,24.0,0.,24.0
1979-08-01 10:32:09.190 ,5,1,0.,24.0,0.,24.0,1.,24.0,0.,24.0
1979-08-01 10:32:33.190 ,5,0,0.,24.0,0.,24.0,0.,24.0,0.,24.0
1979-08-01 10:32:57.190 ,4,1,0.,24.0,0.,24.0,0.,24.0,0.,24.0
1979-08-01 10:33:21.190 ,4,0,0.,24.0,0.,24.0,1.,24.0,0.,24.0
1979-08-01 10:33:45.190 ,3,1,0.,24.0,0.,24.0,1.,24.0,0.,24.0
1979-08-01 10:34:09.190 ,3,0,0.,24.0,0.,24.0,1.,24.0,0.,24.0
1979-08-01 10:34:33.190 ,2,1,0.,24.0,0.,24.0,1.,24.0,0.,24.0
1979-08-01 10:34:57.190 ,2,0,0.,24.0,0.,24.0,0.,24.0,0.,24.0
1979-08-01 10:35:21.190 ,1,1,0.,24.0,0.,24.0,1.,24.0,0.,24.0
1979-08-01 10:35:45.190 ,1,0,0.,24.0,0.,24.0,1.,24.0,0.,24.0
1979-08-01 10:36:09.190 ,0,1,0.,24.0,0.,24.0,1.,24.0,0.,24.0
1979-08-01 10:36:33.190 ,0,0,0.,24.0,0.,24.0,2.,24.0,0.,24.0
1979-08-01 10:36:57.190 ,0,1,0.,24.0,0.,24.0,1.,24.0,0.,24.0
1979-08-01 10:37:21.190 ,0,0,0.,24.0,0.,24.0,0.,24.0,0.,24.0
1979-08-01 10:37:45.190 ,1,1,0.,24.0,0.,24.0,1.,24.0,0.,24.0
1979-08-01 10:38:09.190 ,1,0,0.,24.0,0.,24.0,1.,24.0,0.,24.0
1979-08-01 10:38:33.190 ,2,1,0.,24.0,0.,24.0,1.,24.0,0.,24.0
1979-08-01 10:38:57.190 ,0,1,0.,24.0,0.,24.0,1.,24.0,0.,24.0
1979-08-01 10:39:21.190 ,3,1,0.,24.0,0.,24.0,1.,24.0,0.,24.0
1979-08-01 10:39:45.190 ,3,0,0.,24.0,0.,24.0,0.,24.0,0.,24.0
1979-08-01 10:40:09.190 ,0,0,0.,24.0,0.,24.0,0.,24.0,0.,24.0
1979-08-01 10:40:33.190 ,0,0,0.,24.0,0.,24.0,0.,24.0,0.,24.0
1979-08-01 10:40:57.190 ,5,1,0.,24.0,0.,24.0,0.,24.0,0.,24.0
1979-08-01 10:41:21.190 ,5,0,0.,24.0,0.,24.0,1.,24.0,0.,24.0
1979-08-01 10:41:45.190 ,6,1,0.,24.0,1.,24.0,1.,24.0,0.,24.0
1979-08-01 10:42:09.190 ,6,0,0.,24.0,0.,24.0,0.,24.0,0.,24.0
1979-08-01 10:42:33.190 ,7,0,9.,24.0,0.,24.0,2.,24.0,0.,24.0
1979-08-01 10:42:57.190 ,7,0,30.,24.0,0.,24.0,2.,24.0,0.,24.0
1979-08-01 10:43:21.190 ,5,1,16.,24.0,0.,24.0,0.,24.0,0.,24.0
1979-08-01 10:43:45.190 ,1,1,0.,24.0,0.,24.0,0.,24.0,0.,24.0
1979-08-01 10:44:09.190 ,2,1,0.,24.0,0.,24.0,0.,24.0,0.,24.0
1979-08-01 10:44:33.190 ,6,1,0.,24.0,0.,24.0,0.,24.0,0.,24.0
1979-08-01 10:44:57.190 ,5,1,17.,24.0,0.,24.0,0.,24.0,0.,24.0
1979-08-01 10:45:21.190 ,1,1,,0,,0,,0,,0
1979-08-01 10:45:45.190 ,2,1,0.,24.0,0.,24.0,1.,24.0,0.,24.0
1979-08-01 10:46:09.190 ,6,1,0.,24.0,0.,24.0,1.,24.0,0.,24.0
1979-08-01 10:46:33.190 ,5,1,12.,24.0,0.,24.0,3.,24.0,0.,24.0
1979-08-01 10:46:57.190 ,1,1,0.,24.0,3.,24.0,3.,24.0,0.,24.0
1979-08-01 10:47:21.190 ,2,1,0.,24.0,0.,24.0,0.,24.0,0.,24.0
1979-08-01 10:47:45.190 ,6,1,0.,24.0,0.,24.0,0.,24.0,0.,24.0
1979-08-01 10:48:09.190 ,5,1,14.,24.0,0.,24.0,0.,24.0,0.,24.0
1979-08-01 10:48:33.190 ,1,1,0.,24.0,0.,24.0,0.,24.0,0.,24.0
1979-08-01 10:48:57.190 ,2,1,0.,24.0,0.,24.0,2.,24.0,0.,24.0
1979-08-01 10:49:21.190 ,6,1,0.,24.0,0.,24.0,0.,24.0,0.,24.0
1979-08-01 10:49:45.190 ,5,1,15.,24.0,0.,24.0,0.,24.0,0.,24.0
1979-08-01 10:50:09.190 ,1,1,1.,24.0,0.,24.0,3.,24.0,0.,24.0
1979-08-01 10:50:33.190 ,2,1,1.,24.0,0.,24.0,0.,24.0,0.,24.0
1979-08-01 10:50:57.190 ,6,1,0.,24.0,0.,24.0,0.,24.0,0.,24.0
1979-08-01 10:51:21.190 ,5,1,21.,24.0,0.,24.0,1.,24.0,0.,24.0
1979-08-01 10:51:45.190 ,1,1,0.,24.0,0.,24.0,0.,24.0,0.,24.0
1979-08-01 10:52:09.190 ,2,1,0.,24.0,0.,24.0,0.,24.0,0.,24.0
1979-08-01 10:52:33.190 ,6,1,0.,24.0,0.,24.0,2.,24.0,0.,24.0
1979-08-01 10:52:57.190 ,5,1,12.,24.0,0.,24.0,0.,24.0,0.,24.0
1979-08-01 10:53:21.190 ,1,1,0.,24.0,0.,24.0,0.,24.0,0.,24.0
1979-08-01 10:53:45.190 ,0,0,1.,24.0,0.,24.0,1.,24.0,0.,24.0
1979-08-01 10:54:09.190 ,0,0,0.,24.0,0.,24.0,1.,24.0,0.,24.0
1979-08-01 10:54:33.190 ,5,1,10.,24.0,0.,24.0,1.,24.0,0.,24.0
1979-08-01 10:54:57.190 ,5,0,0.,24.0,0.,24.0,2.,24.0,0.,24.0
1979-08-01 10:55:21.190 ,4,1,0.,24.0,0.,24.0,1.,24.0,0.,24.0
1979-08-01 10:55:45.190 ,4,0,0.,24.0,0.,24.0,3.,24.0,0.,24.0
1979-08-01 10:56:09.190 ,3,1,0.,24.0,0.,24.0,2.,24.0,0.,24.0
1979-08-01 10:56:33.190 ,3,0,0.,24.0,0.,24.0,1.,24.0,0.,24.0
1979-08-01 10:56:57.190 ,0,0,0.,24.0,0.,24.0,3.,24.0,0.,24.0
1979-08-01 10:57:21.190 ,0,0,0.,24.0,0.,24.0,2.,24.0,0.,24.0
1979-08-01 10:57:45.190 ,1,1,0.,24.0,0.,24.0,0.,24.0,0.,24.0
1979-08-01 10:58:09.190 ,1,0,0.,24.0,0.,24.0,0.,24.0,0.,24.0
1979-08-01 10:58:33.190 ,0,1,0.,24.0,0.,24.0,0.,24.0,0.,24.0
1979-08-01 10:58:57.190 ,0,0,0.,24.0,0.,24.0,0.,24.0,0.,24.0
1979-08-01 10:59:21.190 ,0,1,1.,24.0,0.,24.0,1.,24.0,0.,24.0
1979-08-01 10:59:45.190 ,0,0,0.,24.0,0.,24.0,1.,24.0,0.,24.0
1979-08-01 11:00:09.190 ,1,1,0.,24.0,0.,24.0,0.,24.0,0.,24.0
1979-08-01 11:00:33.190 ,1,0,0.,24.0,0.,24.0,1.,24.0,0.,24.0
1979-08-01 11:00:57.190 ,2,1,1.,24.0,0.,24.0,2.,24.0,0.,24.0
1979-08-01 11:01:21.190 ,2,0,1.,24.0,0.,24.0,1.,24.0,0.,24.0
1979-08-01 11:01:45.190 ,3,1,0.,24.0,0.,24.0,0.,24.0,0.,24.0
1979-08-01 11:02:09.190 ,3,0,1.,24.0,1.,24.0,0.,24.0,0.,24.0
1979-08-01 11:02:33.190 ,4,1,0.,24.0,0.,24.0,0.,24.0,0.,24.0
1979-08-01 11:02:57.190 ,4,0,0.,24.0,0.,24.0,1.,24.0,0.,24.0
1979-08-01 11:07:18.790 ,0,0,,0,,0,,0,,0
1979-08-01 11:07:21.190 ,0,0,0.,24.0,0.,24.0,1.,24.0,0.,24.0
1979-08-01 11:07:45.190 ,0,0,0.,24.0,0.,24.0,0.,24.0,0.,24.0
1979-08-01 11:08:09.190 ,4,1,0.,24.0,0.,24.0,1.,24.0,0.,24.0
1979-08-01 11:08:33.190 ,4,0,0.,24.0,0.,24.0,1.,24.0,0.,24.0
1979-08-01 11:08:57.190 ,3,1,0.,24.0,0.,24.0,1.,24.0,0.,24.0
1979-08-01 11:09:21.190 ,3,0,0.,24.0,0.,24.0,0.,24.0,0.,24.0
1979-08-01 11:09:45.190 ,2,1,0.,24.0,0.,24.0,0.,24.0,0.,24.0
1979-08-01 11:10:09.190 ,2,0,1.,24.0,0.,24.0,0.,24.0,0.,24.0
1979-08-01 11:10:33.190 ,1,1,0.,24.0,0.,24.0,1.,24.0,0.,24.0
1979-08-01 11:10:57.190 ,1,0,0.,24.0,0.,24.0,1.,24.0,0.,24.0
1979-08-01 11:11:21.190 ,0,1,0.,24.0,0.,24.0,0.,24.0,0.,24.0
1979-08-01 11:11:45.190 ,1,0,0.,24.0,0.,24.0,0.,24.0,0.,24.0
1979-08-01 11:12:09.190 ,0,1,0.,24.0,0.,24.0,1.,24.0,0.,24.0
1979-08-01 11:12:33.190 ,0,0,0.,24.0,0.,24.0,0.,24.0,0.,24.0
1979-08-01 11:12:57.190 ,1,1,0.,24.0,0.,24.0,1.,24.0,0.,24.0
1979-08-01 11:13:21.190 ,1,0,0.,24.0,0.,24.0,1.,24.0,0.,24.0
1979-08-01 11:13:45.190 ,2,1,0.,24.0,0.,24.0,1.,24.0,0.,24.0
1979-08-01 11:14:09.190 ,2,0,0.,24.0,0.,24.0,3.,24.0,0.,24.0
1979-08-01 11:14:33.190 ,3,1,0.,24.0,0.,24.0,0.,24.0,0.,24.0
1979-08-01 11:14:57.190 ,3,0,0.,24.0,0.,24.0,0.,24.0,0.,24.0
1979-08-01 11:15:21.190 ,4,1,0.,24.0,0.,24.0,1.,24.0,0.,24.0
1979-08-01 11:15:45.190 ,4,0,0.,24.0,0.,24.0,0.,24.0,0.,24.0
1979-08-01 11:16:09.190 ,5,1,0.,24.0,0.,24.0,0.,24.0,0.,24.0
1979-08-01 11:16:33.190 ,5,0,0.,24.0,0.,24.0,1.,24.0,0.,24.0
1979-08-01 11:16:57.190 ,6,1,0.,24.0,0.,24.0,1.,24.0,0.,24.0
1979-08-01 11:17:21.190 ,6,0,0.,24.0,0.,24.0,1.,24.0,0.,24.0
1979-08-01 11:17:45.190 ,7,1,10.,24.0,0.,24.0,0.,24.0,0.,24.0
1979-08-01 11:18:09.190 ,0,0,0.,24.0,0.,24.0,0.,24.0,0.,24.0
1979-08-01 11:18:33.190 ,7,1,37.,24.0,0.,24.0,1.,24.0,0.,24.0
1979-08-01 11:18:57.190 ,7,0,33.,24.0,0.,24.0,0.,24.0,0.,24.0
1979-08-01 11:19:21.190 ,6,1,26.,24.0,0.,24.0,0.,24.0,0.,24.0
1979-08-01 11:19:45.190 ,6,0,0.,24.0,0.,24.0,0.,24.0,0.,24.0
1979-08-01 11:20:09.190 ,5,1,0.,24.0,0.,24.0,2.,24.0,0.,24.0
1979-08-01 11:20:33.190 ,5,0,0.,24.0,0.,24.0,0.,24.0,0.,24.0
1979-08-01 11:20:57.190 ,4,1,0.,24.0,0.,24.0,2.,24.0,0.,24.0
1979-08-01 11:21:21.190 ,4,0,0.,24.0,0.,24.0,1.,24.0,0.,24.0
1979-08-01 11:21:45.190 ,3,1,0.,24.0,0.,24.0,0.,24.0,0.,24.0
1979-08-01 11:22:09.190 ,3,0,0.,24.0,0.,24.0,1.,24.0,0.,24.0
1979-08-01 11:22:33.190 ,2,1,0.,24.0,0.,24.0,0.,24.0,0.,24.0
1979-08-01 11:22:57.190 ,2,0,0.,24.0,0.,24.0,1.,24.0,0.,24.0
1979-08-01 11:23:21.190 ,1,1,,0,,0,,0,,0
1979-08-01 11:23:45.190 ,1,0,0.,24.0,0.,24.0,1.,24.0,0.,24.0
1979-08-01 11:24:09.190 ,0,1,0.,24.0,0.,24.0,1.,24.0,0.,24.0
1979-08-01 11:24:33.190 ,0,0,1.,24.0,0.,24.0,0.,24.0,0.,24.0
1979-08-01 11:24:57.190 ,0,1,0.,24.0,0.,24.0,1.,24.0,0.,24.0
1979-08-01 11:25:21.190 ,0,0,0.,24.0,0.,24.0,1.,24.0,0.,24.0
1979-08-01 11:25:46.390 ,1,1,0.,24.0,0.,24.0,5.,24.0,0.,24.0
1979-08-01 11:26:09.190 ,1,0,0.,24.0,0.,24.0,2.,24.0,0.,24.0
1979-08-01 11:26:33.190 ,2,1,0.,24.0,0.,24.0,1.,24.0,0.,24.0
1979-08-01 11:26:57.190 ,2,0,0.,24.0,0.,24.0,1.,24.0,0.,24.0
1979-08-01 11:27:21.190 ,3,1,0.,24.0,0.,24.0,1.,24.0,0.,24.0
1979-08-01 11:27:45.190 ,3,0,0.,24.0,0.,24.0,1.,24.0,0.,24.0
1979-08-01 11:28:09.190 ,4,1,0.,24.0,0.,24.0,1.,24.0,0.,24.0
1979-08-01 11:28:33.190 ,4,0,0.,24.0,0.,24.0,1.,24.0,0.,24.0
1979-08-01 11:28:57.190 ,5,1,0.,24.0,0.,24.0,1.,24.0,0.,24.0
1979-08-01 11:29:21.190 ,5,0,1.,24.0,0.,24.0,4.,24.0,0.,24.0
1979-08-01 11:29:45.190 ,6,1,0.,24.0,0.,24.0,2.,24.0,0.,24.0
1979-08-01 11:30:09.190 ,6,0,0.,24.0,0.,24.0,2.,24.0,0.,24.0
1979-08-01 11:30:33.190 ,7,0,9.,24.0,0.,24.0,2.,24.0,0.,24.0
1979-08-01 11:30:57.190 ,7,0,43.,24.0,0.,24.0,1.,24.0,0.,24.0
1979-08-01 11:31:21.190 ,5,1,21.,24.0,0.,24.0,1.,24.0,0.,24.0
1979-08-01 11:31:45.190 ,1,1,0.,24.0,0.,24.0,0.,24.0,0.,24.0
1979-08-01 11:32:09.190 ,2,1,0.,24.0,0.,24.0,2.,24.0,0.,24.0
1979-08-01 11:32:33.190 ,6,1,1.,24.0,0.,24.0,3.,24.0,0.,24.0
1979-08-01 11:32:57.190 ,5,1,18.,24.0,0.,24.0,0.,24.0,0.,24.0
1979-08-01 11:33:21.190 ,1,1,0.,24.0,0.,24.0,1.,24.0,0.,24.0
1979-08-01 11:33:45.190 ,2,1,0.,24.0,1.,24.0,0.,24.0,0.,24.0
1979-08-01 11:34:09.190 ,6,1,0.,24.0,0.,24.0,0.,24.0,0.,24.0
1979-08-01 11:34:33.190 ,5,1,14.,24.0,0.,24.0,1.,24.0,0.,24.0
1979-08-01 11:34:57.190 ,1,1,0.,24.0,0.,24.0,1.,24.0,0.,24.0
1979-08-01 11:35:21.190 ,2,1,0.,24.0,0.,24.0,0.,24.0,0.,24.0
1979-08-01 11:35:45.190 ,6,1,0.,24.0,0.,24.0,2.,24.0,0.,24.0
1979-08-01 11:36:57.190 ,0,0,0.,24.0,0.,24.0,3.,24.0,0.,24.0
1979-08-01 11:37:21.190 ,6,1,0.,24.0,1.,24.0,3.,24.0,0.,24.0
1979-08-01 11:37:45.190 ,5,1,11.,24.0,0.,24.0,1.,24.0,0.,24.0
1979-08-01 11:38:09.190 ,1,1,0.,24.0,0.,24.0,0.,24.0,0.,24.0
1979-08-01 11:38:33.190 ,2,1,0.,24.0,0.,24.0,0.,24.0,0.,24.0
1979-08-01 11:38:57.190 ,6,1,0.,24.0,0.,24.0,4.,24.0,0.,24.0
1979-08-01 11:39:21.190 ,5,1,17.,24.0,1.,24.0,4.,24.0,0.,24.0